Date String (YYYY-MM-DD hh:mm:ss) UTC,Instrument flags,Ambient pressure (hPa),Sample flow (lpm),Bypass flow (lpm),Sample temperature (°C),Ambient temperature (°C),ASC tube jacket temperature (°C),LED temperature (°C),Box temperature (°C),Sample RH (%),Span deviation,Mass concentration (μg/m³),Mass concentration (μg/m³),Mass concentration (μg/m³)
DateTimeUTC,F1_M11,P_M11,Q1_M11,Q2_M11,T1_M11,T2_M11,T3_M11,T4_M11,T5_M11,U1_M11,ZSPAN_M11,X0_M11,X2_M11,X1_M11
2022-01-10 18:00:00,,0839.3,5.01,0.00,24.9,24.2,00.0,33.7,26.8,06.1,0000.0,0000.72,0000.47,0000.34
2022-01-10 18:01:00,,0839.3,4.99,0.00,24.9,24.2,00.0,33.7,26.8,06.2,0000.0,0000.70,0000.46,0000.34
2022-01-10 18:02:00,,0839.3,5.01,0.00,24.9,24.2,00.0,33.7,26.8,05.6,0000.0,0000.74,0000.47,0000.34
2022-01-10 18:03:00,,0839.3,4.99,0.00,24.9,24.2,00.0,33.7,26.8,05.7,0000.0,0000.73,0000.46,0000.33
2022-01-10 18:04:00,,0839.3,5.01,0.00,25.0,24.2,00.0,33.7,26.8,06.0,0000.0,0000.70,0000.44,0000.33
2022-01-10 18:05:00,,0839.3,5.01,0.00,25.0,24.2,00.0,33.8,26.9,06.5,0000.0,0000.69,0000.44,0000.33
2022-01-10 18:06:00,,0839.3,4.98,0.00,25.0,24.2,00.0,33.8,26.9,06.6,0000.0,0000.64,0000.42,0000.33
2022-01-10 18:07:00,,0839.3,5.00,0.00,25.0,24.3,00.0,33.8,26.9,06.3,0000.0,0000.78,0000.42,0000.33
2022-01-10 18:08:00,,0839.3,5.01,0.00,25.1,24.3,00.0,33.8,26.9,06.5,0000.0,0001.39,0000.42,0000.31
2022-01-10 18:09:00,,0839.3,4.98,0.00,25.1,24.3,00.0,33.9,27.0,06.7,0000.0,0001.38,0000.42,0000.31
2022-01-10 18:10:00,,0839.3,5.00,0.00,25.1,24.4,00.0,33.9,27.0,07.0,0000.0,0001.37,0000.41,0000.30
2022-01-10 18:11:00,,0839.3,5.01,0.00,25.1,24.4,00.0,33.9,27.0,06.8,0000.0,0001.43,0000.42,0000.30
2022-01-10 18:12:00,,0839.2,5.00,0.00,25.1,24.4,00.0,33.9,27.0,06.3,0000.0,0001.50,0000.43,0000.30
2022-01-10 18:13:00,,0839.2,5.00,0.00,25.2,24.4,00.0,33.9,27.1,06.2,0000.0,0001.67,0000.42,0000.30
2022-01-10 18:14:00,,0839.2,5.00,0.00,25.2,24.4,00.0,34.0,27.1,06.3,0000.0,0002.15,0000.41,0000.30
2022-01-10 18:15:00,,0839.0,4.99,0.00,25.2,24.4,00.0,34.0,27.1,05.7,0000.0,0002.18,0000.42,0000.30
2022-01-10 18:16:00,,0839.0,5.00,0.00,25.2,24.4,00.0,34.0,27.1,05.4,0000.0,0002.16,0000.41,0000.30
2022-01-10 18:17:00,,0839.0,5.00,0.00,25.2,24.4,00.0,34.0,27.1,05.7,0000.0,0002.18,0000.42,0000.30
2022-01-10 18:18:00,,0839.0,4.99,0.00,25.3,24.4,00.0,34.0,27.1,05.3,0000.0,0002.13,0000.42,0000.30
2022-01-10 18:19:00,,0839.0,5.01,0.00,25.3,24.5,00.0,34.0,27.2,05.4,0000.0,0001.43,0000.40,0000.30
2022-01-10 18:20:00,,0839.0,5.00,0.00,25.3,24.5,00.0,34.1,27.2,05.8,0000.0,0001.40,0000.39,0000.30
2022-01-10 18:21:00,,0839.0,5.00,0.00,25.3,24.5,00.0,34.1,27.2,06.0,0000.0,0001.40,0000.39,0000.31
2022-01-10 18:22:00,,0839.0,5.01,0.00,25.3,24.5,00.0,34.1,27.2,06.4,0000.0,0001.37,0000.38,0000.31
2022-01-10 18:23:00,,0838.9,5.00,0.00,25.3,24.5,00.0,34.1,27.3,06.1,0000.0,0001.24,0000.36,0000.31
2022-01-10 18:24:00,,0838.9,5.00,0.00,25.4,24.6,00.0,34.2,27.2,06.1,0000.0,0001.42,0000.37,0000.31
2022-01-10 18:25:00,,0838.8,5.00,0.00,25.4,24.6,00.0,34.2,27.3,06.2,0000.0,0001.50,0000.39,0000.32
2022-01-10 18:26:00,,0838.8,5.00,0.00,25.4,24.6,00.0,34.2,27.3,06.2,0000.0,0001.48,0000.40,0000.32
2022-01-10 18:27:00,,0838.9,5.00,0.00,25.4,24.6,00.0,34.2,27.3,06.2,0000.0,0002.69,0000.43,0000.33
2022-01-10 18:28:00,,0838.9,5.00,0.00,25.4,24.7,00.0,34.2,27.3,06.4,0000.0,0002.87,0000.44,0000.33
2022-01-10 18:29:00,,0838.9,5.00,0.00,25.4,24.7,00.0,34.3,27.4,06.5,0000.0,0002.95,0000.45,0000.33
2022-01-10 18:30:00,,0838.8,5.00,0.00,25.5,24.7,00.0,34.3,27.4,06.0,0000.0,0003.06,0000.51,0000.35
2022-01-10 18:31:00,,0838.8,5.00,0.00,25.5,24.8,00.0,34.3,27.5,06.2,0000.0,0003.15,0000.54,0000.36
2022-01-10 18:32:00,,0838.7,5.00,0.00,25.5,24.8,00.0,34.3,27.5,05.9,0000.0,0003.86,0000.57,0000.37
2022-01-10 18:33:00,,0838.7,5.00,0.00,25.6,24.9,00.0,34.3,27.5,06.3,0000.0,0004.21,0000.59,0000.38
2022-01-10 18:34:00,,0838.7,5.00,0.00,25.6,24.9,00.0,34.4,27.5,06.4,0000.0,0004.42,0000.62,0000.39
2022-01-10 18:35:00,,0838.7,5.00,0.00,25.6,25.0,00.0,34.4,27.6,06.7,0000.0,0004.51,0000.66,0000.39
2022-01-10 18:36:00,,0838.6,5.00,0.00,25.6,25.0,00.0,34.4,27.6,07.1,0000.0,0003.83,0000.71,0000.41
2022-01-10 18:37:00,,0838.6,4.99,0.00,25.7,25.1,00.0,34.4,27.7,06.7,0000.0,0003.80,0000.73,0000.41
2022-01-10 18:38:00,,0838.6,5.01,0.00,25.7,25.1,00.0,34.5,27.7,07.0,0000.0,0003.50,0000.75,0000.41
2022-01-10 18:39:00,,0838.6,4.99,0.00,25.8,25.2,00.0,34.5,27.8,06.8,0000.0,0002.82,0000.77,0000.43
2022-01-10 18:40:00,,0838.6,5.02,0.00,25.8,25.2,00.0,34.5,27.8,06.9,0000.0,0002.87,0000.81,0000.44
2022-01-10 18:41:00,,0838.6,4.99,0.00,25.8,25.2,00.0,34.6,27.8,06.9,0000.0,0002.81,0000.78,0000.44
2022-01-10 18:42:00,,0838.6,5.01,0.00,25.9,25.3,00.0,34.6,27.9,06.9,0000.0,0002.83,0000.78,0000.44
2022-01-10 18:43:00,,0838.6,5.00,0.00,25.9,25.3,00.0,34.6,27.9,07.0,0000.0,0002.51,0000.78,0000.44
2022-01-10 18:44:00,,0838.5,5.00,0.00,25.9,25.4,00.0,34.6,27.9,06.9,0000.0,0002.22,0000.77,0000.43
2022-01-10 18:45:00,,0838.5,4.98,0.00,26.0,25.4,00.0,34.7,28.0,06.8,0000.0,0002.06,0000.77,0000.43
2022-01-10 18:46:00,,0838.5,5.01,0.00,26.0,25.4,00.0,34.7,28.0,06.7,0000.0,0002.05,0000.77,0000.44
2022-01-10 18:47:00,,0838.5,4.98,0.00,26.0,25.4,00.0,34.7,28.0,06.7,0000.0,0001.96,0000.73,0000.44
2022-01-10 18:48:00,,0838.5,5.01,0.00,26.0,25.4,00.0,34.7,28.0,06.6,0000.0,0001.95,0000.73,0000.43
2022-01-10 18:49:00,,0838.5,5.00,0.00,26.1,25.5,00.0,34.8,28.1,06.5,0000.0,0001.84,0000.70,0000.43
2022-01-10 18:50:00,,0838.4,5.01,0.00,26.1,25.5,00.0,34.8,28.1,06.1,0000.0,0001.71,0000.65,0000.42
2022-01-10 18:51:00,,0838.4,4.99,0.00,26.1,25.5,00.0,34.8,28.1,06.1,0000.0,0002.61,0000.62,0000.40
2022-01-10 18:52:00,,0838.4,5.01,0.00,26.2,25.5,00.0,34.9,28.1,06.0,0000.0,0003.19,0000.60,0000.39
2022-01-10 18:53:00,,0838.4,4.98,0.00,26.2,25.6,00.0,34.9,28.1,06.3,0000.0,0003.14,0000.58,0000.38
2022-01-10 18:54:00,,0838.3,5.01,0.00,26.2,25.6,00.0,34.9,28.2,06.4,0000.0,0002.86,0000.57,0000.37
2022-01-10 18:55:00,,0838.3,5.00,0.00,26.2,25.6,00.0,34.9,28.2,06.4,0000.0,0002.75,0000.58,0000.37
2022-01-10 18:56:00,,0838.3,4.99,0.00,26.3,25.6,00.0,35.0,28.2,06.6,0000.0,0002.70,0000.56,0000.37
2022-01-10 18:57:00,,0838.3,5.00,0.00,26.3,25.7,00.0,35.0,28.2,06.6,0000.0,0002.65,0000.55,0000.37
2022-01-10 18:58:00,,0838.3,4.99,0.00,26.3,25.7,00.0,35.0,28.3,05.8,0000.0,0002.70,0000.59,0000.37
2022-01-10 18:59:00,,0838.3,5.01,0.00,26.3,25.7,00.0,35.0,28.3,05.3,0000.0,0002.74,0000.61,0000.37
